This is the latest recevied weather packets stored in our database for station/object KO4DYK. If no packets are shown the sender has not sent any weather packets the latest 1 day(s).
| Time | Temp. | Humidity | Pressure | Rain* | Wind** | Luminosity | Snow |
|---|---|---|---|---|---|---|---|
| 1778091215 | 11.67° C | 99% | 1018.7 hPa | 0 mm | - | 207 W/m² | - |
| 1778090001 | 11.11° C | 99% | 1018.8 hPa | 0 mm | - | 199 W/m² | - |
| 1778088183 | 11.11° C | 99% | 1019.2 hPa | 0 mm | - | 51 W/m² | - |
| 1778086670 | 11.11° C | 99% | 1018.7 hPa | 0 mm | - | 100 W/m² | - |
| 1778086367 | 11.67° C | 99% | 1018.6 hPa | 0 mm | - | 144 W/m² | - |
| 1778086064 | 11.67° C | 99% | 1018.5 hPa | 0 mm | - | 81 W/m² | - |
| 1778082730 | 11.11° C | 99% | 1017.9 hPa | 3.05 mm | - | 192 W/m² | - |
| 1778080986 | 11.11° C | 99% | 1018.1 hPa | 3.05 mm | - | 78 W/m² | - |
| 1778080685 | 11.11° C | 99% | 1017.9 hPa | 1.78 mm | - | 40 W/m² | - |
| 1778080381 | 11.11° C | 99% | 1017.4 hPa | 3.05 mm | - | 32 W/m² | - |
| 1778078260 | 11.11° C | 99% | 1018.3 hPa | 6.1 mm | - | 23 W/m² | - |
| 1778075840 | 11.11° C | 99% | 1017.7 hPa | 0 mm | - | 23 W/m² | - |
| 1778074627 | 11.67° C | 99% | 1017.2 hPa | 0 mm | - | 52 W/m² | - |
| 1778074021 | 11.67° C | 99% | 1017.2 hPa | 0 mm | - | 51 W/m² | - |
| 1778073111 | 11.67° C | 99% | 1016.6 hPa | 0 mm | - | 53 W/m² | - |
| 1778072808 | 11.67° C | 99% | 1016.4 hPa | 0 mm | - | 58 W/m² | - |
| 1778071901 | 11.11° C | 99% | 1016.1 hPa | 0 mm | - | 56 W/m² | - |
| 1778069784 | 11.11° C | 99% | 1015.7 hPa | 0 mm | - | 16 W/m² | - |
| 1778069480 | 11.11° C | 99% | 1015.5 hPa | 0 mm | - | 18 W/m² | - |
| 1778068574 | 11.11° C | 99% | 1014.9 hPa | 0 mm | - | 10 W/m² | - |
| 1778067061 | 11.11° C | 99% | 1014.5 hPa | 0 mm | - | 7 W/m² | - |
| 1778066153 | 11.11° C | 99% | 1015 hPa | 1.78 mm | - | 0 W/m² | - |
| 1778065850 | 11.11° C | 99% | 1014.7 hPa | 4.83 mm | - | 0 W/m² | - |
| 1778065548 | 11.11° C | 99% | 1015.2 hPa | 7.11 mm | - | 0 W/m² | - |
| 1778065245 | 11.11° C | 99% | 1015.8 hPa | 7.87 mm | - | 0 W/m² | - |
* Rain latest hour (hover to see other rain measurements)
** Current wind speed in m/s (hover to see current wind gust speed)